• en Suisse
  • Liste des pays
  • À 7 jours
  • Température de l'eau
  • Carte satellitaire
  • Carte météo
  • Widgets météo
  • user-avatar
    Se connecter

    Météo par heure à Serhiivka

    Ce jour, 24 Septembre, Lundi

    Heure Température Précipitation Vent Pression Humidité
    00:00 +14°C° 0 mm 1 m/s 764 mmHg 69%
    01:00 +14°C° 0 mm 1 m/s 763 mmHg 69%
    02:00 +13°C° 0 mm 1 m/s 763 mmHg 71%
    03:00 +13°C° 0 mm 2 m/s 763 mmHg 72%
    04:00 +13°C° 0 mm 2 m/s 762 mmHg 73%
    05:00 +12°C° 0 mm 3 m/s 762 mmHg 74%
    06:00 +13°C° 0 mm 4 m/s 762 mmHg 70%
    07:00 +15°C° 0 mm 5 m/s 762 mmHg 66%
    08:00 +17°C° 0 mm 5 m/s 761 mmHg 61%
    09:00 +19°C° 0 mm 5 m/s 761 mmHg 58%
    10:00 +20°C° 0 mm 5 m/s 760 mmHg 54%
    11:00 +22°C° 0 mm 5 m/s 760 mmHg 51%
    12:00 +23°C° 0 mm 5 m/s 759 mmHg 49%
    13:00 +24°C° 0 mm 6 m/s 758 mmHg 47%
    14:00 +27°C° 0 mm 6 m/s 758 mmHg 45%
    15:00 +26°C° 0 mm 6 m/s 757 mmHg 49%
    16:00 +26°C° 0 mm 6 m/s 757 mmHg 53%
    17:00 +24°C° 0 mm 6 m/s 756 mmHg 57%
    18:00 +23°C° 0 mm 6 m/s 756 mmHg 63%
    19:00 +22°C° 0 mm 6 m/s 756 mmHg 69%
    20:00 +21°C° 0 mm 6 m/s 756 mmHg 74%
    21:00 +20°C° 0.2 mm 6 m/s 757 mmHg 74%
    22:00 +17°C° 0.2 mm 7 m/s 757 mmHg 74%
    23:00 +15°C° 0.2 mm 8 m/s 758 mmHg 74%

    Demain, 25 Septembre, Mardi

    Heure Température Précipitation Vent Pression Humidité
    00:00 +13°C° 0.5 mm 8 m/s 758 mmHg 75%
    01:00 +12°C° 0.5 mm 8 m/s 759 mmHg 77%
    02:00 +11°C° 0.5 mm 8 m/s 759 mmHg 78%
    03:00 +11°C° 0.8 mm 7 m/s 759 mmHg 77%
    04:00 +11°C° 0.8 mm 6 m/s 760 mmHg 76%
    05:00 +11°C° 0.8 mm 6 m/s 760 mmHg 75%
    06:00 +11°C° 0.1 mm 6 m/s 761 mmHg 71%
    07:00 +11°C° 0.1 mm 6 m/s 761 mmHg 67%
    08:00 +11°C° 0.1 mm 7 m/s 762 mmHg 64%
    09:00 +12°C° 0 mm 7 m/s 762 mmHg 59%
    10:00 +14°C° 0 mm 7 m/s 762 mmHg 54%
    11:00 +15°C° 0 mm 7 m/s 763 mmHg 49%
    12:00 +15°C° 0 mm 7 m/s 763 mmHg 47%
    13:00 +16°C° 0 mm 8 m/s 763 mmHg 46%
    14:00 +16°C° 0 mm 8 m/s 763 mmHg 44%
    15:00 +15°C° 0 mm 8 m/s 764 mmHg 46%
    16:00 +14°C° 0 mm 7 m/s 764 mmHg 47%
    17:00 +14°C° 0 mm 7 m/s 764 mmHg 49%
    18:00 +12°C° 0 mm 7 m/s 765 mmHg 52%
    19:00 +11°C° 0 mm 6 m/s 766 mmHg 56%
    20:00 +10°C° 0 mm 6 m/s 766 mmHg 59%
    21:00 +10°C° 0 mm 6 m/s 767 mmHg 62%
    22:00 +9°C° 0 mm 6 m/s 767 mmHg 65%
    23:00 +9°C° 0 mm 6 m/s 767 mmHg 68%

    Après-demain, 26 Septembre, Mercredi

    Heure Température Précipitation Vent Pression Humidité
    00:00 +8°C° 0 mm 5 m/s 768 mmHg 69%
    01:00 +8°C° 0 mm 5 m/s 768 mmHg 70%
    02:00 +8°C° 0 mm 5 m/s 768 mmHg 71%
    03:00 +7°C° 0 mm 5 m/s 769 mmHg 72%
    04:00 +7°C° 0 mm 5 m/s 769 mmHg 73%
    05:00 +6°C° 0 mm 4 m/s 769 mmHg 74%
    06:00 +7°C° 0 mm 4 m/s 770 mmHg 70%
    07:00 +8°C° 0 mm 4 m/s 770 mmHg 65%
    08:00 +9°C° 0 mm 5 m/s 770 mmHg 61%
    09:00 +10°C° 0 mm 5 m/s 771 mmHg 54%
    10:00 +12°C° 0 mm 5 m/s 771 mmHg 48%
    11:00 +14°C° 0 mm 5 m/s 771 mmHg 41%
    12:00 +14°C° 0 mm 5 m/s 771 mmHg 39%
    13:00 +14°C° 0 mm 5 m/s 771 mmHg 37%
    14:00 +15°C° 0 mm 5 m/s 770 mmHg 35%
    15:00 +14°C° 0 mm 5 m/s 770 mmHg 36%
    16:00 +14°C° 0 mm 5 m/s 770 mmHg 36%
    17:00 +14°C° 0 mm 4 m/s 771 mmHg 37%
    18:00 +13°C° 0 mm 4 m/s 771 mmHg 39%
    19:00 +13°C° 0 mm 4 m/s 771 mmHg 40%
    20:00 +12°C° 0 mm 4 m/s 772 mmHg 42%
    21:00 +11°C° 0 mm 4 m/s 772 mmHg 47%
    22:00 +10°C° 0 mm 4 m/s 772 mmHg 52%
    23:00 +10°C° 0 mm 4 m/s 772 mmHg 56%

    27 Septembre, Jeudi

    Heure Température Précipitation Vent Pression Humidité
    00:00 +8°C° 0 mm 4 m/s 772 mmHg 58%
    01:00 +8°C° 0 mm 4 m/s 772 mmHg 61%
    02:00 +8°C° 0 mm 3 m/s 772 mmHg 63%
    03:00 +8°C° 0 mm 3 m/s 772 mmHg 64%
    04:00 +7°C° 0 mm 3 m/s 772 mmHg 65%
    05:00 +7°C° 0 mm 3 m/s 771 mmHg 66%
    06:00 +8°C° 0 mm 3 m/s 772 mmHg 61%
    07:00 +9°C° 0 mm 2 m/s 772 mmHg 56%
    08:00 +10°C° 0 mm 2 m/s 772 mmHg 52%
    09:00 +12°C° 0 mm 2 m/s 772 mmHg 46%
    10:00 +14°C° 0 mm 2 m/s 771 mmHg 40%
    11:00 +15°C° 0 mm 2 m/s 771 mmHg 35%
    12:00 +16°C° 0 mm 3 m/s 771 mmHg 32%
    13:00 +16°C° 0 mm 3 m/s 770 mmHg 30%
    14:00 +17°C° 0 mm 3 m/s 770 mmHg 27%
    15:00 +17°C° 0 mm 3 m/s 769 mmHg 29%
    16:00 +16°C° 0 mm 3 m/s 769 mmHg 30%
    17:00 +16°C° 0 mm 3 m/s 768 mmHg 31%
    18:00 +14°C° 0 mm 3 m/s 769 mmHg 34%
    19:00 +13°C° 0 mm 3 m/s 769 mmHg 37%
    20:00 +12°C° 0 mm 3 m/s 769 mmHg 40%
    21:00 +12°C° 0 mm 3 m/s 769 mmHg 42%
    22:00 +11°C° 0 mm 3 m/s 768 mmHg 44%
    23:00 +12°C° 0 mm 2 m/s 768 mmHg 46%

    28 Septembre, Vendredi

    Heure Température Précipitation Vent Pression Humidité
    00:00 +12°C° 0 mm 2 m/s 768 mmHg 47%
    01:00 +12°C° 0 mm 2 m/s 768 mmHg 48%
    02:00 +12°C° 0 mm 2 m/s 767 mmHg 49%
    03:00 +12°C° 0 mm 2 m/s 767 mmHg 50%
    04:00 +12°C° 0 mm 2 m/s 767 mmHg 51%
    05:00 +12°C° 0 mm 2 m/s 767 mmHg 51%
    06:00 +13°C° 0 mm 1 m/s 766 mmHg 49%
    07:00 +14°C° 0 mm 1 m/s 766 mmHg 46%
    08:00 +15°C° 0 mm 1 m/s 766 mmHg 44%
    09:00 +18°C° 0 mm 1 m/s 766 mmHg 42%
    10:00 +19°C° 0 mm 1 m/s 766 mmHg 40%
    11:00 +21°C° 0 mm 1 m/s 765 mmHg 38%
    12:00 +21°C° 0 mm 1 m/s 765 mmHg 38%
    13:00 +22°C° 0 mm 1 m/s 764 mmHg 38%
    14:00 +23°C° 0 mm 1 m/s 764 mmHg 38%
    15:00 +22°C° 0 mm 1 m/s 763 mmHg 40%
    16:00 +22°C° 0 mm 1 m/s 763 mmHg 42%
    17:00 +21°C° 0 mm 1 m/s 763 mmHg 44%
    18:00 +19°C° 0 mm 2 m/s 763 mmHg 47%
    19:00 +18°C° 0 mm 2 m/s 763 mmHg 49%
    20:00 +17°C° 0 mm 2 m/s 763 mmHg 51%
    21:00 +16°C° 0 mm 2 m/s 763 mmHg 52%
    22:00 +16°C° 0 mm 1 m/s 762 mmHg 53%
    23:00 +16°C° 0 mm 1 m/s 762 mmHg 54%

    29 Septembre, Samedi

    Heure Température Précipitation Vent Pression Humidité
    00:00 +15°C° 0 mm 1 m/s 762 mmHg 56%
    01:00 +15°C° 0 mm 1 m/s 762 mmHg 57%
    02:00 +15°C° 0 mm 1 m/s 762 mmHg 58%
    03:00 +15°C° 0 mm 1 m/s 761 mmHg 59%
    04:00 +15°C° 0 mm 1 m/s 761 mmHg 60%
    05:00 +15°C° 0 mm 1 m/s 761 mmHg 62%
    06:00 +16°C° 0 mm 2 m/s 761 mmHg 59%
    07:00 +17°C° 0 mm 2 m/s 761 mmHg 56%
    08:00 +18°C° 0 mm 2 m/s 761 mmHg 53%
    09:00 +20°C° 0 mm 2 m/s 761 mmHg 50%
    10:00 +21°C° 0 mm 3 m/s 760 mmHg 47%
    11:00 +22°C° 0 mm 3 m/s 760 mmHg 44%
    12:00 +24°C° 0 mm 3 m/s 760 mmHg 43%
    13:00 +24°C° 0 mm 3 m/s 759 mmHg 43%
    14:00 +25°C° 0 mm 3 m/s 759 mmHg 42%
    15:00 +24°C° 0 mm 3 m/s 759 mmHg 44%
    16:00 +24°C° 0 mm 2 m/s 759 mmHg 47%
    17:00 +23°C° 0 mm 2 m/s 759 mmHg 49%
    18:00 +22°C° 0 mm 1 m/s 759 mmHg 51%
    19:00 +21°C° 0 mm 1 m/s 759 mmHg 54%
    20:00 +21°C° 0 mm 1 m/s 759 mmHg 56%
    21:00 +20°C° 0 mm 1 m/s 759 mmHg 56%
    22:00 +19°C° 0 mm 2 m/s 759 mmHg 56%
    23:00 +19°C° 0 mm 2 m/s 759 mmHg 56%
    Voir plus